User: anonymous   Login
Location: Boissi�res
(45.2500°N, 2.3667°E)
Time: 14:42:08
(UTC+00:00)
Language:

Cosmos 2219 Rocket - Orbit

View from above orbital plane
View from above orbital plane
View from above satellite
View from above satellite

Ground track
Ground track

The orbit data is extracted from the following two-line orbital elements,

1 22220U 92076B   21126.94773366 -.00000185  00000-0 -68966-4 0  9994
2 22220  70.9993 310.6031 0015103 269.3345 200.1393 14.16467961471480
Epoch (UTC): 06 May 2021 22:44:44
Eccentricity: 0.0015103
inclination: 70.9993°
perigee height: 826 km
apogee height: 848 km
right ascension of ascending node: 310.6031°
argument of perigee: 269.3345°
revolutions per day: 14.16467961
mean anomaly at epoch: 200.1393°
orbit number at epoch: 47148

The dashed part of the orbit path shows where the satellite is in the earth's shadow,  

DLR